www.pogodaiklimat.ru

Погода и климат >> Архив погоды >> Россия >> Ставропольский край >> Зеленокумск


ПОГОДА в Зеленокумске

  • Прогноз погоды в Зеленокумске
  • Монитор погоды в Зеленокумске

АРХИВ ПОГОДЫ в Зеленокумске

Время (UTC), дата Ветер
(напр.,м/с)
 
Видим.   Явления Облачность Т
(С)
Тd
(С)
f
(%)
Тe
(С)
Тes
(С)
Комфортность P
(гПа)
Po
(гПа)
Тmin
(С)
Tmax
(С)
R
(мм)
R24
(мм)
S
(см)
12 13.05 З 2 10 км слаб. дождь 10/0 2000 м
[As op]
+17.8 +14.6 82 +18 +21 1018.3 1000.9
15 13.05 ЮЗ 2 20 км {дождь} 8/3 600 м
[Sc diur, vesp Ac cast Ci]
+21.2 +14.2 64 +24 +24 комфорт 1017.3 1000.1 +22.1 0.5
18 13.05 З 1 20 км {дождь} 5/3 600 м
[Sc Ac cast Ci fib]
+14.8 +11.6 81 +15 +15 1019.0 1001.4
21 13.05 З 2 20 км 3/0
[Ac lent]
+13.5 +10.9 84 +13 +13 1018.8 1001.1
00 14.05 ЮЗ 1 4000 м дымка 3/0
[Ac lent]
+11.5 +10.7 95 +11 +11 1018.5 1000.7
03 14.05 ЮЗ 1 4000 м дымка 3/0
[Ac cast]
+12.3 +11.0 92 +12 +13 1019.0 1001.2 +10.2
06 14.05 З 3 20 км 8/4 600 м
[Sc Ac cast]
+19.0 +13.7 71 +20 +23 1018.8 1001.4
09 14.05 З 4
{10}
20 км 5/3 600 м
[Cu hum Ac cast Ci fib]
+22.9 +11.5 49 +25 +33 комфорт 1017.4 1000.3
12 14.05 З 4 20 км 8/3 600 м
[Cu med, cong Ac lent Ci fib]
+24.0 +12.1 47 +26 +29 жарко 1016.6 999.6
15 14.05 СЗ 1 20 км 8/0 2000 м
[Ac lent Ci fib]
+22.7 +13.5 56 +26 +27 жарко 1016.1 999.0 +25.0
18 14.05 ЮЗ 1 20 км 3/0 2000 м
[Ac lent]
+16.0 +12.8 81 +17 +17 1017.6 1000.1
21 14.05 штиль 0 20 км 3/0 2000 м
[]
+12.8 +10.6 86 +12 +12 1018.2 1000.5
00 15.05 Ю 1 20 км ясно +11.9 +10.1 89 +12 +12 1018.0 1000.2
03 15.05 Ю 2 20 км 4/0 2000 м
[Ac lent Ci fib]
+12.3 +10.3 88 +11 +12 1018.1 1000.3 +11.4
06 15.05 З 4 20 км 3/0 2000 м
[Ac lent Ci fib]
+22.2 +14.0 60 +25 +32 комфорт 1017.4 1000.3
09 15.05 З 4 н/о н/о +26.2 +14.1 47 +28 +28 жарко 1016.4 999.5
12 15.05 СЗ 4
{10}
20 км 3/3 600 м
[Cu hum]
+27.9 +13.1 40 +30 +35 жарко 1015.4 998.6
15 15.05 СЗ 2 20 км 3/0 2000 м
[Ac lent Ci fib]
+25.7 +13.7 47 +28 +29 жарко 1015.3 998.4 +28.3
18 15.05 штиль 0 20 км ясно +16.3 +13.5 83 +16 +16 1016.7 999.3
21 15.05 штиль 0 20 км ясно +14.7 +12.2 85 +14 +14 1016.4 998.8
00 16.05 Ю 2 20 км ясно +13.5 +11.5 88 +13 +13 1016.3 998.7
03 16.05 ЮЗ 2 20 км 1/0 2000 м
[Ac lent]
+13.6 +11.3 86 +13 +14 1015.8 998.2 +12.4
06 16.05 ЮЗ 1 20 км ясно +23.7 +16.6 64 +27 +40 жарко 1015.1 998.1
09 16.05 С 1 20 км 8/8 600 м
[Cu med, cong]
+27.0 +16.7 53 +31 +35 душно 1014.2 997.4
12 16.05 В 2 20 км 6/6 600 м
[Cu med, cong]
+29.8 +15.9 43 +33 +37 душно 1013.1 996.5
15 16.05 В 2 20 км 3/3 600 м
[Sc diur, vesp]
+28.2 +15.1 45 +31 +32 душно 1012.5 995.8 +29.9
18 16.05 В 1 20 км ясно +20.7 +14.6 68 +25 +25 комфорт 1013.7 996.6
21 16.05 ЮВ 2 20 км ясно +19.0 +12.2 65 +21 +21 комфорт 1013.8 996.5
00 17.05 штиль 0 4000 м дымка ясно +11.9 +10.8 93 +11 +11 1013.7 996.0
03 17.05 штиль 0 4000 м дымка 3/0
[Ac lent]
+12.8 +12.2 96 +12 +13 1014.0 996.4 +10.3
06 17.05 В 3 20 км 6/0
[Ci fib]
+24.2 +12.8 49 +26 +34 жарко 1013.2 996.2
09 17.05 В 4 20 км 5/0
[Ci fib]
+29.0 +10.9 33 +30 +41 жарко 1012.1 995.4
12 17.05 В 3 20 км 5/0
[Ci fib]
+30.6 +13.2 35 +32 +41 жарко 1011.0 994.4
15 17.05 ЮВ 3 20 км 10/0
[Cs]
+28.7 +12.5 37 +30 +31 жарко 1010.5 993.8 +31.1
18 17.05 В 1 20 км 6/0
[Ci fib]
+20.2 +12.5 61 +23 +23 комфорт 1011.5 994.3
21 17.05 В 2 20 км 4/0
[Ci fib]
+17.7 +11.3 66 +18 +18 1011.3 994.0
00 18.05 штиль 0 20 км дымка ясно +11.0 +9.8 92 +10 +10 1011.3 993.6
03 18.05 СВ 1 20 км 3/0
[Ci sp]
+12.3 +10.5 89 +12 +14 1011.8 994.2 +8.9
06 18.05 СВ 3 20 км 4/0 2000 м
[Ac lent]
+22.5 +13.9 58 +26 +32 жарко 1010.6 993.6
09 18.05 В 3 20 км 4/0 2000 м
[Ac lent]
+27.2 +13.8 44 +29 +40 жарко 1009.5 992.8
12 18.05 В 3
{10}
20 км 10/0 2000 м
[Ac lent Ci]
+29.3 +13.5 38 +31 +36 жарко 1007.9 991.3
15 18.05 В 2 20 км 10/0
[Cs]
+26.9 +13.6 44 +29 +30 жарко 1007.7 991.0 +29.5
18 18.05 ЮВ 2 20 км 8/0 2000 м
[Ac trans]
+21.5 +13.1 59 +24 +24 комфорт 1008.5 991.4
21 18.05 СВ 1 20 км 8/0 2000 м
[Ac trans]
+16.6 +12.8 78 +17 +17 1008.5 991.2
00 19.05 В 1 4000 м дымка 10/0 2000 м
[Ac und]
+15.2 +14.1 93 +16 +16 1008.7 991.3
03 19.05 штиль 0 4000 м дымка 10/5 600 м
[Sc Ac und]
+16.1 +15.2 94 +16 +16 1009.1 991.8 +14.0
06 19.05 В 3 20 км 10/3 300 м
[St Ac lent Ci]
+20.6 +15.7 73 +24 +27 комфорт 1009.1 992.1
09 19.05 СВ 2 20 км 9/6 600 м
[Cu med, cong Ac cast Ci]
+24.9 +16.1 58 +28 +33 жарко 1009.8 993.0
12 19.05 В 3 20 км 9/6 600 м
[Sc diur, vesp Ac lent Ci sp]
+27.0 +15.2 48 +30 +32 душно 1009.3 992.6
15 19.05 С 1 20 км 9/5 600 м
[Sc Ac As]
+26.2 +15.5 52 +29 +30 жарко 1010.1 993.3 +27.2
18 19.05 штиль 0 10 км в посл. час ливневой дождь 8/4 600 м
[Cb calv Ac lent]
+21.2 +13.7 62 +24 +24 комфорт 1011.6 994.5
21 19.05 штиль 0 20 км 6/1 600 м
[Sc diur, vesp Ac lent Ci fib]
+17.3 +12.1 71 +17 +17 1011.7 994.3
00 20.05 штиль 0 20 км 6/0 2000 м
[Ac lent Ci sp]
+14.8 +12.4 86 +14 +14 1012.5 995.0
03 20.05 СВ 1 20 км 6/3 600 м
[Cb calv Ac lent Ci sp]
+15.3 +12.7 84 +16 +17 1013.1 995.6 +13.9
06 20.05 штиль 0 20 км 10/5 600 м
[Sc diur, vesp Ac und]
+21.0 +15.6 71 +24 +26 комфорт 1014.3 997.1
09 20.05 СВ 1 20 км 10/5 600 м
[Sc Ac und]
+23.6 +15.3 60 +27 +30 жарко 1015.0 998.0

 

Местоположение метеостанции Зеленокумск (Ставропольский край, Россия): широта 44.43 долгота 43.88 высота над уровнем моря 148 м.

В архиве по умолчанию представлена погода в Зеленокумске за последнюю неделю. Архивные данные за месяц целиком и за предыдущие месяцы, начиная с января 2011 года, Вы можете получить, выбрав интересующий диапазон дат из раскрывающегося списка и нажав кнопку "Ввод!".


*Определитесь, кто Вы:
робот инопланетянин человек

Внимание! Время в таблицах - всемирное. Для получения местного времени необходимо прибавить поправку, которая равна 3 ч.

Смотрите также архив погоды в соседних городах и на ближайших метеорологических станциях:

Погода в Буденновске (Ставропольский край, Россия) (44 км)
Погода в Георгиевске (Ставропольский край, Россия) (48 км)
Погода в Минеральных Водах (Ставропольский край, Россия) (66 км)
Погода в Александровском (Ставропольский край, Россия) (77 км)
Погода в Прохладный (Кабардино-Балкария, Россия) (77 км)
Погода в Благодарном (Ставропольский край, Россия) (82 км)
Погода в Моздоке (Северная Осетия, Россия) (100 км)
Погода в Нальчике (Кабардино-Балкария, Россия) (102 км)
Погода в Рощино (Ставропольский край, Россия) (110 км)
Погода в Кисловодске (Ставропольский край, Россия) (110 км)

Пояснения к столбцам:

Ветер - указаны скорость ветра в м/с - средняя за 10 мин, порывы в срок и между сроками (в фигурных скобках) и направление, откуда дует ветер: С - северный, СВ - северо-восточный, В - восточный, ЮВ - юго-восточный, Ю - южный, ЮЗ - юго-западный, З - западный, СЗ - северо-западный.
Видимость - горизонтальная дальность видимости в метрах или километрах. При видимости от 1 до 10 км при отсутствии осадков обычно наблюдается дымка, при ухудшении видимости до 1 км и менее - туман. В сухую погоду видимость может ухудшаться дымом, пылью или мглою.
Явления - указаны атмосферные явления, наблюдавшиеся в срок или в последний час перед сроком; фигурными скобками обозначены явления, наблюдавшиеся между сроками (за 1-3 часа до срока); квадратными скобками обозначены град или гололедные отложения с указанием их диаметра в мм.
Облачность - указаны через наклонную черту общая и нижняя облачность в баллах и высота нижней границы облаков в метрах; квадратными скобками обозначены формы облаков: Ci - перистые, Cs - перисто-слоистые, Cc - перисто-кучевые, Ac - высококучевые, As - высокослоистые, Sc - слоисто-кучевые, Ns - слоисто-дождевые, Cu - кучевые, Cb - кучево-дождевые. Подробнее классификацию облаков см. в Атласе облаков (PDF).
T - Температура воздуха - температура, измеренная на высоте 2 м над землей.
Td - Температура точки росы - температура, при понижении до которой содержащийся в воздухе водяной пар достигнет насыщения.
f - Относительная влажность воздуха - влажноcть воздуха, измеренная на высоте 2 м над землей.
Te - Эффективная температура - температура, которую ощущает одетый по сезону человек в тени. Характеристика душности погоды. При расчете учитывается влияние влажности воздуха и скорости ветра на теплоощущения человека.
Tes - Эффективная температура на солнце - температура, которую ощущает человек, с поправкой на солнечный нагрев. Характеристика знойности погоды. Зависит от высоты солнца над горизонтом, облачности и скорости ветра. Ночью, в пасмурную погоду, а также при ветре 12 м/с и более поправка равна нулю.
P - Атмосферное давление - приведенное к уровню моря атмосферное давление.
Po - Атмосферное давление - измеренное на уровне метеостанции атмосферное давление.
Tmin - Минимальная температура - минимум температуры воздуха на высоте 2 м над землей.
Tmax - Максимальная температура - максимум температуры воздуха на высоте 2 м над землей.
R - Количество осадков - Количество выпавших осадков за период времени, мм. При наведении курсора мыши на число - период времени, за который выпало указанное количество осадков.
R24 - Количество осадков - Количество выпавших осадков за 24 часа, мм.
S - Снежный покров - Высота снежного покрова, см. При наведении курсора мыши на число - состояние снежного покрова и степень покрытия местности в баллах.